{"data":{"norad_id":68627,"intl_designator":"2026-074A","name":"STP-S29A OBJECT A","alt_names":[],"object_type":"PAYLOAD","status":"ACTIVE","operator":null,"country":"US","launch_date":"2026-04-07","launch_site_code":"AFWTR","launch_vehicle":null,"mission":null,"orbit_class":"UNKNOWN","rcs_meters":null,"size_class":null,"mass_kg":null,"dimensions":null,"purposes":[],"wikipedia_slug":null,"has_3d_model":false,"image_url":null,"decayed_at":null,"tle_current":{"epoch":"2026-09-19T05:18:35.377920Z","epoch_age_seconds":173762,"freshness":"STALE","line1":"1 68627U 26074A   26262.22124280  .00006311  00000+0  25334-3 0  9997","line2":"2 68627  60.0169 177.2905 0037144  83.8382 276.6929 15.25548982 25125","mean_motion":15.25548982,"eccentricity":0.0037144,"inclination_deg":60.0169,"raan_deg":177.2905,"arg_perigee_deg":83.8382,"mean_anomaly_deg":276.6929,"bstar":0.00025334,"rev_number":2512,"period_min":94.392249412546,"perigee_km":463.62963661431,"apogee_km":514.64524498011,"semimajor_km":6867.2744407972,"source":"CELESTRAK","updated_at":"2026-09-20T09:00:24.364182Z"}}}